Date,TemperatureHighF,TemperatureAvgF,TemperatureLowF,DewpointHighF,DewpointAvgF,DewpointLowF,HumidityHigh,HumidityAvg,HumidityLow,PressureMaxIn,PressureMinIn,WindSpeedMaxMPH,WindSpeedAvgMPH,GustSpeedMaxMPH,PrecipitationSumIn
2013-2-1,22.9,8.0,-7.1,17.7,2.5,-11.6,84,78,71,30.48,30.07,12,1,12,0.00
2013-2-2,36.4,21.5,15.0,32.6,17.0,9.4,96,83,76,30.23,30.02,21,3,21,0.00
2013-2-3,38.4,23.8,12.6,30.8,18.3,7.9,88,79,68,30.21,29.83,14,2,14,0.00
2013-2-4,23.2,18.1,12.5,20.4,14.1,8.1,90,84,75,30.10,29.81,9,1,9,0.00
2013-2-5,38.4,30.3,23.0,31.1,26.2,20.3,94,85,74,30.07,29.77,16,2,16,0.00
2013-2-6,43.9,34.2,23.5,36.5,30.1,22.0,94,85,74,30.05,29.82,18,1,18,0.00
2013-2-7,33.3,27.3,22.8,30.4,24.7,20.2,95,90,85,30.31,29.96,11,2,11,0.00
2013-2-8,31.1,25.3,21.4,26.5,22.7,19.8,95,90,81,30.33,30.09,17,3,17,0.00
2013-2-9,44.3,34.4,26.3,35.6,30.7,24.3,93,87,70,30.10,29.69,24,3,24,0.00
2013-2-10,34.4,31.3,25.7,33.9,30.0,23.4,98,95,89,29.70,29.24,20,4,20,0.00
2013-2-11,25.7,23.3,22.1,23.3,20.0,18.6,91,87,82,30.13,29.68,22,4,22,0.00
2013-2-12,32.2,25.0,18.2,24.3,20.0,15.6,93,82,65,30.12,29.91,11,1,11,0.00
2013-2-13,41.0,32.3,21.2,33.2,27.5,19.2,95,83,67,29.91,29.66,11,1,11,0.00
2013-2-14,35.4,27.0,13.1,31.5,21.6,7.4,94,80,59,30.32,29.76,16,3,16,0.00
2013-2-15,23.9,15.7,8.2,19.2,11.4,5.7,90,83,70,30.43,30.32,9,1,9,0.00
2013-2-16,35.4,23.4,7.6,28.2,19.2,5.1,93,84,69,30.36,30.03,11,1,12,0.00
2013-2-17,46.2,34.1,22.4,35.0,28.5,19.9,91,81,63,30.03,29.52,17,3,17,0.00
2013-2-18,37.2,23.3,8.7,33.1,18.0,3.4,89,80,70,30.11,29.58,25,7,25,0.00
2013-2-19,8.9,3.6,-2.3,3.7,-2.5,-7.8,83,75,68,30.51,30.12,17,4,17,0.00
2013-2-20,24.1,10.3,-3.5,10.1,1.5,-8.6,80,68,50,30.52,30.33,12,2,12,0.00
2013-2-21,24.9,17.7,13.2,16.2,12.2,9.3,90,79,59,30.38,30.05,13,2,13,0.00
2013-2-22,24.9,18.6,11.2,20.1,15.4,8.1,91,87,79,30.05,29.98,11,2,12,0.00
2013-2-23,29.2,14.2,-0.2,21.2,10.0,-3.1,93,83,70,30.00,29.87,7,0,7,0.00
2013-2-24,32.0,21.9,12.0,24.8,18.8,9.8,95,88,71,30.14,29.95,6,0,6,0.00
2013-2-25,31.1,23.7,17.0,25.3,21.2,15.1,95,90,78,30.15,30.02,8,0,8,0.00
2013-2-26,32.2,24.0,16.3,27.7,21.6,14.5,95,90,79,30.05,29.93,11,1,11,0.00
2013-2-27,35.9,27.2,21.3,26.0,21.5,17.4,92,80,60,30.15,30.00,19,4,19,0.00
2013-2-28,26.9,23.6,19.7,23.8,20.0,17.2,91,86,82,30.29,30.15,12,3,12,0.00